TimeEDT,TemperatureF,Dew PointF,Humidity,Sea Level PressureIn,VisibilityMPH,Wind Direction,Wind SpeedMPH,Gust SpeedMPH,PrecipitationIn,Events,Conditions,WindDirDegrees,DateUTC
12:53 AM,39.0,32.0,76,30.09,10.0,West,10.4,-,N/A,,Overcast,280,2012-10-11 04:53:00
1:53 AM,37.9,28.0,68,30.10,10.0,WNW,11.5,24.2,N/A,,Overcast,290,2012-10-11 05:53:00
2:53 AM,37.0,27.0,67,30.12,10.0,WNW,11.5,-,N/A,,Overcast,290,2012-10-11 06:53:00
3:53 AM,37.0,25.0,62,30.12,10.0,West,9.2,-,N/A,,Overcast,280,2012-10-11 07:53:00
4:53 AM,36.0,26.1,67,30.14,10.0,West,6.9,-,N/A,,Overcast,270,2012-10-11 08:53:00
5:53 AM,35.1,27.0,72,30.16,10.0,WSW,3.5,-,N/A,,Partly Cloudy,250,2012-10-11 09:53:00
6:53 AM,33.1,26.1,75,30.18,10.0,SW,4.6,-,N/A,,Clear,230,2012-10-11 10:53:00
7:53 AM,33.1,26.1,75,30.21,10.0,SW,4.6,-,N/A,,Partly Cloudy,230,2012-10-11 11:53:00
8:53 AM,35.1,27.0,72,30.24,10.0,Variable,6.9,-,N/A,,Clear,0,2012-10-11 12:53:00
9:53 AM,39.9,28.0,63,30.24,10.0,West,9.2,-,N/A,,Clear,280,2012-10-11 13:53:00
10:53 AM,43.0,28.0,56,30.24,10.0,WNW,17.3,20.7,N/A,,Clear,290,2012-10-11 14:53:00
11:53 AM,45.0,28.0,52,30.22,10.0,West,10.4,18.4,N/A,,Clear,270,2012-10-11 15:53:00
12:53 PM,48.0,28.9,48,30.20,10.0,Variable,5.8,-,N/A,,Scattered Clouds,0,2012-10-11 16:53:00
1:53 PM,48.9,28.0,44,30.17,10.0,Variable,5.8,-,N/A,,Clear,0,2012-10-11 17:53:00
2:53 PM,51.1,28.0,41,30.14,10.0,SW,8.1,20.7,N/A,,Clear,220,2012-10-11 18:53:00
3:53 PM,52.0,28.0,40,30.12,10.0,SSW,11.5,16.1,N/A,,Clear,210,2012-10-11 19:53:00
4:53 PM,52.0,28.9,41,30.11,10.0,SSW,8.1,18.4,N/A,,Clear,210,2012-10-11 20:53:00
7:53 PM,46.9,28.0,48,30.12,10.0,SW,6.9,-,N/A,,Clear,220,2012-10-11 23:53:00
9:53 PM,46.0,28.0,50,30.13,10.0,Variable,6.9,-,N/A,,Clear,0,2012-10-12 01:53:00
10:53 PM,45.0,28.0,52,30.12,10.0,WSW,9.2,-,N/A,,Clear,240,2012-10-12 02:53:00
11:53 PM,44.1,28.0,53,30.12,10.0,West,6.9,-,N/A,,Clear,260,2012-10-12 03:53:00